Flag for U.S.A. Weather past 2 weeks in Seattle, Washington, U.S.A.

Now
43 °F

Clear.


Feels Like: 43 °F
Forecast: 38 / 50 °F
Wind: No wind

Location: Seattle Boeing Field

Current Time: Jan 30, 2015 at 12:47:57 AM

Latest Report: Jan 29, 2015 at 11:53 PM


Visibility: 10 mi

Pressure: 30.31 "Hg

Humidity: 76%

Dew point: 36 °F

Location of SeattleLocation

Historic Weather in Seattle — Graph

°F

Seattle temperature yesterday

Maximum temperature yesterday: 55 °F (at 1:53 PM)
Minimum temperature yesterday: 42 °F (at 3:53 AM)
Average temperature yesterday: 48 °F

Past Weeks' High & Low Weather Summary

 TemperatureHumidityPressure
High65 °F (Jan 25, 2:53 PM)94% (Jan 26, 5:01 AM)30.46 "Hg (Jan 26, 5:01 AM)
Low33 °F (Jan 21, 6:53 AM)52% (Jan 26, 2:53 PM)29.60 "Hg (Jan 17, 11:53 PM)
Average50 °F77%30.19 "Hg
* Reported Jan 14 11:53 PM — Jan 29 11:53 PM, Seattle, Weather by CustomWeather, © 2014

Note: Actual official high and low records may vary slightly from our data, if they occured in-between our weather recording intervals... More about our weather records

Advertising

Seattle weather history for previous 24 hours

 ConditionsComfort  
Time TempWeatherWind HumidityBarometerVisibility
11:53 PM
Jan 29
43 °FClear.No wind76%30.31 "Hg10 mi
10:53 PM44 °FClear.No wind76%30.30 "Hg10 mi
9:53 PM46 °FClear.No wind71%30.31 "Hg10 mi
8:53 PM46 °FClear.No wind73%30.31 "Hg10 mi
7:53 PM48 °FClear.No wind68%30.31 "Hg10 mi
6:53 PM50 °FClear.No wind63%30.31 "Hg10 mi
5:53 PM50 °FClear.No wind66%30.31 "Hg10 mi
4:53 PM51 °FSunny.5 mph63%30.30 "Hg10 mi
3:53 PM53 °FSunny.8 mph61%30.30 "Hg10 mi
2:53 PM54 °FSunny.8 mph59%30.30 "Hg10 mi
1:53 PM55 °FPassing clouds.No wind57%30.31 "Hg10 mi
12:53 PM53 °FScattered clouds.8 mph59%30.33 "Hg10 mi
11:53 AM51 °FScattered clouds.5 mph63%30.35 "Hg10 mi
10:53 AM50 °FScattered clouds.3 mph68%30.36 "Hg10 mi
9:53 AM48 °FScattered clouds.No wind74%30.36 "Hg10 mi
8:53 AM46 °FScattered clouds.No wind77%30.35 "Hg10 mi
7:53 AM44 °FScattered clouds.No wind79%30.36 "Hg10 mi
6:53 AM44 °FPassing clouds.No wind79%30.35 "Hg10 mi
5:53 AM43 °FPassing clouds.No wind82%30.36 "Hg10 mi
4:53 AM44 °FPassing clouds.No wind79%30.36 "Hg10 mi
3:53 AM42 °FPassing clouds.No wind85%30.36 "Hg10 mi
2:53 AM44 °FClear.No wind79%30.37 "Hg10 mi
1:53 AM46 °FPassing clouds.No wind77%30.37 "Hg10 mi
12:53 AM45 °FPassing clouds.No wind80%30.37 "Hg10 mi
Weather by CustomWeather, © 2014

See weather overviewHow to use our weather pages